Location: Unspecified
(0.0000°N, 0.0000°E)
Time: 12:22:47
(UTC+02:00)

Cosmos 2263 Rocket - Visible Passes

Search period start: 28 July 2015 00:00
Search period end: 07 August 2015 00:00
Orbit: 824 x 849 km, 71.0° (Epoch: 28 July)

Date Brightness Start Highest point End Pass type
(mag) Time Alt. Az. Time Alt. Az. Time Alt. Az.
01 Aug 4.6 22:42:59 12° N 22:42:59 12° N 22:43:24 10° N visible
02 Aug 2.8 22:16:03 10° SSW 22:21:27 53° WNW 22:26:50 10° N visible
03 Aug 2.6 21:59:20 10° SSW 22:04:47 60° WNW 22:10:15 10° N visible
04 Aug 2.4 21:42:37 10° SSW 21:48:08 68° WNW 21:53:39 10° N visible
05 Aug 2.3 21:25:56 10° SSW 21:31:28 76° WNW 21:37:02 10° N visible
06 Aug 2.2 21:09:16 10° SSW 21:14:49 85° WNW 21:20:23 10° NNE visible
